Dewpoint
47 44 44 45 46 49 47 46 43 50 53 45 43 32 27 27 22 26 27 28 28 25 25 23 26 25 27 29 31 29 30 32 25 30 35 36 35 34 33 28 29 31 22 23
47 45 44 45 47 48 47 45 37 50 51 41 32 28 25 25 24 24 27 26 27 28 25 22 27 29 32 29 31 33 35 31 25 30 33 35 34 36 36 32 32 30 18 24
46 44 44 45 47 49 47 46 34 39 45 43 31 27 26 25 24 25 24 25 27 23 21 24 26 27 30 32 30 37 39 35 33 29 33 34 34 35 36 34 22 23 22 25
46 44 44 46 48 48 46 46 40 35 29 34 31 31 26 21 21 25 25 25 25 25 22 24 27 27 27 29 35 35 36 31 33 34 34 33 33 32 33 31 29 23 26 25
45 44 44 47 48 49 45 45 35 37 36 36 31 30 25 23 23 24 23 27 30 30 30 31 29 30 31 28 29 28 36 34 33 32 32 31 32 32 32 32 32 29 29 28
44 44 45 47 48 48 44 47 45 40 36 32 31 28 26 27 31 29 33 32 31 30 31 31 30 30 29 27 27 29 34 34 31 30 31 30 28 33 33 33 34 33 28 29
43 44 46 47 48 48 48 49 46 38 31 29 25 26 28 30 33 33 33 34 31 33 33 32 31 27 23 22 22 24 33 35 36 32 34 23 34 36 36 34 34 35 34 35
44 44 47 47 48 48 45 48 48 38 27 27 26 28 31 31 33 33 34 35 34 34 33 31 28 31 29 20 20 28 35 36 33 31 28 32 33 34 35 34 34 36 34 36
44 45 47 47 47 48 46 47 52 40 29 33 27 31 31 28 29 31 34 36 37 37 36 25 19 17 17 16 19 27 37 38 33 33 27 24 34 36 38 37 31 37 36 37
45 46 46 47 47 48 47 49 52 40 37 36 37 34 31 33 31 28 28 31 33 36 25 21 19 22 24 21 23 27 32 34 30 31 28 32 37 38 38 29 30 38 38 38
45 46 46 47 47 49 47 45 49 41 36 35 36 38 37 35 34 30 28 30 31 31 24 24 22 24 25 28 30 29 28 29 28 31 29 27 39 37 35 37 38 39 39 39
46 46 46 47 47 48 46 41 41 42 37 36 37 37 37 37 40 36 35 33 29 31 27 28 30 29 29 28 27 34 29 32 31 34 33 39 40 38 39 40 39 40 40 38
46 46 47 47 48 46 46 39 40 38 34 35 35 37 38 40 38 40 34 35 35 34 37 34 32 30 33 28 30 33 36 37 35 36 38 39 40 41 42 41 41 41 42 39
46 47 47 46 45 46 43 38 41 42 38 34 35 38 37 40 41 40 40 38 40 38 38 36 33 31 34 33 34 33 35 36 35 37 38 40 40 41 42 42 43 43 42 40
47 47 46 45 47 45 47 47 43 43 37 33 34 36 39 41 41 42 42 40 38 38 35 34 33 35 34 35 36 33 38 36 34 35 38 40 40 41 42 42 42 43 42 39
46 45 46 46 45 47 44 39 41 38 38 36 33 37 38 40 41 41 39 39 40 38 36 34 35 38 35 33 33 37 39 41 41 39 41 41 42 42 42 42 42 40 37 36
45 46 44 44 45 45 43 36 41 45 43 38 34 32 36 39 39 40 41 40 38 38 36 36 36 36 37 35 32 37 39 41 41 42 41 42 42 39 39 36 37 36 34 35
43 43 43 44 45 44 40 42 43 45 40 39 32 33 34 37 36 36 40 37 38 37 35 35 34 37 38 34 38 38 40 41 40 42 42 42 43 42 40 39 39 37 37 36
42 43 45 46 44 39 38 42 43 48 41 33 33 33 30 38 37 38 36 38 33 38 34 34 34 34 33 36 37 38 40 40 41 42 41 42 42 42 41 41 40 40 40 41
44 44 40 35 39 41 42 46 41 41 38 38 33 35 33 36 36 34 34 36 33 30 33 35 33 33 37 39 38 39 40 40 41 40 39 42 41 42 43 42 42 42 43 43
45 41 37 39 38 43 41 35 33 35 31 34 35 34 32 37 33 33 34 32 33 28 31 31 30 27 37 38 38 40 40 39 38 39 40 40 42 42 43 43 43 43 43 43
43 37 40 40 42 34 30 31 34 31 28 33 33 34 35 34 35 32 32 28 31 29 34 32 26 33 38 38 38 39 39 39 39 38 37 37 36 40 40 40 41 41 42 43
42 41 35 33 34 21 20 24 29 28 33 33 33 31 33 32 33 30 29 27 28 34 28 27 29 37 39 38 38 39 40 40 39 40 38 37 37 38 38 38 40 40 40 41
38 30 20 26 26 28 31 32 33 34 33 33 31 31 30 31 30 31 26 29 29 27 24 28 33 37 40 39 40 37 36 39 40 40 40 37 37 37 38 38 39 39 39 40
35 35 27 29 34 36 35 35 34 33 33 31 31 31 32 30 29 30 28 25 24 24 26 31 37 38 39 38 33 31 32 33 32 38 40 39 40 39 40 39 39 40 41 40
35 33 33 35 34 35 36 33 32 33 31 32 30 28 26 26 29 27 25 25 23 28 34 36 38 37 36 32 30 29 30 32 32 34 38 38 39 38 38 39 40 40 40 40
34 32 37 36 37 34 33 33 32 33 31 28 29 23 24 28 25 23 27 26 32 34 34 34 34 34 32 31 31 30 30 28 29 30 30 33 37 39 37 38 39 40 41 41
Lifted_Index
12 14 15 14 12 9 6 4 3 4 3 2 2 4 5 6 6 6 6 6 6 5 5 5 4 5 6 7 7 5 5 4 3 3 4 4 4 3 3 3 3 2 3 3
13 14 15 14 12 9 6 4 4 4 3 2 3 4 5 6 6 6 6 6 6 6 5 5 5 5 7 8 7 5 4 3 2 3 3 3 3 3 3 3 3 3 3 3
13 15 15 14 12 9 6 4 5 5 4 3 3 4 5 5 6 6 6 6 7 6 6 5 5 6 8 8 6 5 4 3 3 3 3 3 3 3 3 3 3 3 3 4
14 15 15 14 12 9 6 4 4 5 4 4 4 5 5 5 5 6 7 7 7 6 6 6 6 7 7 7 6 4 3 3 3 3 3 3 3 3 3 3 4 4 4 3
15 15 15 14 12 9 6 4 4 4 4 4 5 5 5 5 6 6 7 7 7 7 7 7 7 7 7 7 6 5 4 3 3 3 3 3 2 3 3 3 3 3 3 3
15 15 15 14 12 9 6 4 4 4 4 5 5 5 5 6 6 7 7 7 7 7 8 8 8 8 8 8 6 5 3 2 2 2 2 2 2 3 3 3 3 3 3 2
15 15 15 13 11 9 6 4 4 4 5 5 5 5 6 6 7 7 7 7 8 8 8 8 8 9 9 8 7 4 2 1 0 0 0 1 2 3 4 4 3 3 2 2
15 15 14 12 10 8 6 5 4 5 5 5 6 6 6 7 7 7 8 8 8 8 8 8 9 9 8 7 6 3 1 -0 -0 -0 -0 1 3 4 4 4 4 3 3 2
15 15 13 11 9 7 6 5 5 5 6 6 7 6 7 7 7 8 8 9 8 8 8 9 9 8 7 6 4 2 1 -0 -0 -0 0 1 3 4 4 4 4 4 3 2
15 14 13 10 8 7 6 5 5 6 6 7 7 7 7 7 7 8 9 9 9 8 9 8 8 7 6 4 3 2 1 0 0 0 1 2 4 4 4 4 4 3 3 3
14 14 12 10 8 7 6 6 6 6 7 7 7 7 7 8 8 8 9 9 8 8 8 8 7 6 5 4 3 2 1 1 1 1 2 3 4 4 4 4 4 3 3 2
14 13 11 9 8 7 6 6 7 7 7 8 8 8 8 8 8 8 8 8 8 8 8 7 7 6 5 4 4 3 2 2 1 2 3 4 4 4 4 4 3 3 3 2
13 12 11 9 8 7 7 7 8 8 8 8 9 9 9 9 9 9 8 8 7 7 7 7 7 6 5 5 4 3 3 3 3 3 3 4 4 4 4 3 3 3 2 2
12 11 10 9 8 7 7 8 8 8 8 7 8 9 9 9 9 8 8 8 7 7 7 7 7 6 6 5 4 4 4 4 4 4 4 4 4 4 3 3 3 2 2 2
11 10 9 8 8 8 8 8 8 8 8 7 8 8 8 8 8 8 8 8 7 7 7 7 7 7 6 5 5 5 5 5 4 4 4 4 3 3 3 3 2 2 2 3
10 10 9 8 8 8 8 8 8 8 8 8 7 8 8 8 8 8 8 8 8 7 7 6 7 7 6 5 5 5 5 5 4 4 4 3 3 3 3 3 3 3 3 4
9 9 8 8 8 8 8 8 8 8 8 8 7 8 8 8 8 8 8 8 8 8 7 6 7 7 6 5 5 5 5 5 4 4 4 3 3 3 3 3 3 4 4 5
9 9 8 8 8 8 8 8 7 7 7 7 7 7 8 8 8 8 7 8 8 7 7 7 6 6 6 5 5 5 5 5 4 4 4 3 3 3 3 4 4 4 4 5
8 8 8 8 8 8 8 8 7 7 7 6 6 6 7 7 8 7 7 7 7 7 7 7 7 6 6 6 6 6 5 5 5 4 4 4 3 3 4 4 4 4 4 4
8 8 9 9 8 8 8 8 8 7 7 6 6 6 6 7 7 7 7 7 7 7 7 7 6 6 6 6 6 6 6 6 5 5 4 4 4 4 4 4 4 4 4 4
8 9 9 9 8 8 8 8 8 7 6 7 7 7 7 7 7 7 7 7 7 6 6 6 6 6 6 7 6 6 6 6 6 5 5 5 5 4 4 4 5 5 5 5
8 8 9 9 8 8 7 7 7 6 6 7 7 7 7 8 8 8 7 7 6 6 6 6 6 6 6 7 7 7 7 6 6 6 6 6 6 6 5 5 5 5 5 5
8 8 8 8 8 7 6 6 6 6 6 7 7 7 8 8 8 8 7 6 6 6 6 6 6 6 6 7 7 7 7 7 7 7 7 7 7 7 7 6 6 6 6 6
7 7 7 7 7 7 6 6 6 6 6 7 7 8 8 8 8 7 6 6 5 5 4 5 6 7 7 7 7 7 7 7 7 7 7 7 7 7 8 8 8 8 7 7
7 7 6 6 6 6 6 6 6 7 7 7 8 8 7 7 7 6 5 5 4 4 4 6 7 7 7 8 8 8 8 8 8 7 7 7 7 7 7 8 8 8 8 8
6 6 6 6 5 5 5 6 6 7 8 8 7 7 6 6 6 5 4 4 4 4 5 6 7 8 8 9 9 10 10 10 9 8 7 7 7 7 7 7 7 7 7 7
5 5 6 6 5 5 5 6 7 8 8 7 7 6 5 6 5 4 4 4 4 5 6 7 7 8 9 9 10 11 11 10 10 9 7 7 7 7 7 7 7 7 7 7